Regional Weather Roundup
Issued by NWS

Home | Current Version | Previous Version | Text Only | Print | Product List | Glossary On
Versions: 1 2 3 4 5 6 7 8 9 10 11 12 13 14 15 16 17 18 19 20 21 22 23 24 25 26 27 28 29 30 31 32 33 34 35 36 37 38 39 40 41 42 43 44 45 46 47 48 49 50
605
ASUS44 KJAN 250503
RWRMS

MISSISSIPPI HOURLY WEATHER ROUNDUP
NATIONAL WEATHER SERVICE JACKSON MS
1200 AM CDT SAT OCT 25 2014

NOTE: "FAIR: INDICATES FEW OR NO CLOUDS BELOW 12,000 FEET WITH NO
SIGNIFICANT WEATHER AND/OR OBSTRUCTIONS TO VISIBILITY.

MSZ001>002-007>008-010>013-018>021-025>028-034>036-250600-
NORTHWEST MISSISSIPPI

CITY           SKY/WX    TMP DP  RH WIND       PRES   REMARKS
CLARKSDALE     FAIR      55  54  94 CALM      30.11S
CLEVELAND      FAIR      55  54  95 S5        30.10F
GREENWOOD      CLEAR     51  49  92 CALM      30.11F
GREENVILLE     CLEAR     55  51  86 CALM      30.11S
GRENADA          N/A    N/A N/A N/A MISG        N/A
OLIVE BRANCH   CLEAR     54  54 100 CALM      30.10S
OXFORD         FAIR      50  48  93 CALM      30.12S
TUNICA         CLEAR     55  54  94 S5        30.10F
$$

MSZ003>006-009-014>017-022>024-029>033-037>039-250600-
NORTHEAST MISSISSIPPI

CITY           SKY/WX    TMP DP  RH WIND       PRES   REMARKS
COLUMBUS AFB   CLEAR     47  46  95 CALM      30.10F
CORINTH        FOG       50  48  93 CALM      30.10S VSB<1/4
GOLDN TRIANGLE CLEAR     48  39  71 CALM      30.10S
STARKVILLE     FAIR      46  45  93 CALM      30.11R
TUPELO         CLEAR     53  49  86 CALM      30.10S
$$

MSZ040-058-250600-
CENTRAL MISSISSIPPI

CITY           SKY/WX    TMP DP  RH WIND       PRES   REMARKS
JACKSON INTL   CLEAR     49  46  90 CALM      30.13S
JACKSON HAWKNS CLEAR     52  47  83 CALM      30.13S
MERIDIAN KEY   CLEAR     47  44  90 CALM      30.11S
MERIDIAN NAS   CLEAR     50  46  86 W3        30.11S
RAYMOND        FAIR      46  43  87 MISG      30.13S
VICKSBURG      CLEAR     47  45  93 CALM      30.14S
$$

MSZ059>079-250600-
SOUTH MISSISSIPPI

CITY           SKY/WX    TMP DP  RH WIND       PRES   REMARKS
BROOKHAVEN     FAIR      50  46  87 CALM      30.14S
COLUMBIA         N/A    N/A N/A N/A MISG        N/A
HATTIESBURG    CLEAR     50  48  93 CALM      30.11S
MCCOMB         CLEAR     53  46  77 CALM      30.12S
NATCHEZ        CLEAR     48  45  87 CALM      30.14S
PINE BELT      CLEAR     55  45  67 CALM      30.11F
$$

MSZ080>082-250600-
COASTAL MISSISSIPPI

CITY           SKY/WX    TMP DP  RH WIND       PRES   REMARKS
BILOXI         CLEAR     61  49  63 N5        30.07F
PASCAGOULA     CLEAR     47  46  97 CALM      30.07F
GULFPORT       CLEAR     54  49  83 NW5       30.07F
$$



USA.gov is the U.S. government's official web portal to all federal, state and local government web resources and services.